カタログに戻る

JILIN-01 KUANFU 01C

運用中科学SSO
NORAD 52443·PAYLOAD·🇨🇳 China

打ち上げ May 5, 2022 から Taiyuan Satellite Launch Center

Loading…

次のパス (今後24時間)

TLE

最新Source: Space-Track

元期: Sep 14, 2026, 12:10 UTC

1 52443U 22048A   26257.50741867  .00002075  00000-0  13166-3 0  9998
2 52443  97.5192 333.0287 0018550  18.7839 341.4071 15.09872767240675

AllMySatでJILIN-01 KUANFU 01Cをリアルタイム追跡

Download on the App Store